Regional Weather Roundup
Issued by NWS

Home | Current Version | Previous Version | Graphics & Text | Print | Product List | Glossary On
Versions: 1 2 3 4 5 6 7 8 9 10 11 12 13 14 15 16 17 18 19 20 21 22 23 24 25 26 27 28 29 30 31 32 33 34 35 36 37 38 39 40 41 42 43 44 45 46 47 48 49 50
000
ASUS43 KDMX 041907
RWRIA

WEATHER ROUNDUP FOR IOWA
NATIONAL WEATHER SERVICE DES MOINES IA
100 PM CST WED MAR 04 2015

NOTE: "FAIR" INDICATES FEW OR NO CLOUDS BELOW 12,000 FEET WITH NO
SIGNIFICANT WEATHER AND/OR OBSTRUCTIONS TO VISIBILITY.

* - THESE STATIONS ARE NOT NWS STATIONS...THUS NOT UNDER NWS
QUALITY CONTROL.  THEY ALSO DO NOT REPORT WEATHER SUCH
AS PRECIPITATION OR FOG.

IAZ001>003-012>014-020>022-031>034-043>046-042000-
   NORTHWEST IOWA

CITY           SKY/WX    TMP DP  RH WIND       PRES   REMARKS
CARROLL *      MOSUNNY   25   9  50 NW21G28   30.23F WCI  10
CHEROKEE *     SUNNY     19   0  42 W25G31    30.26S WCI   2
DENISON *      MOSUNNY   23   5  46 NW22G31   30.24R WCI   8
LE MARS *      SUNNY     19   0  42 NW21G33   30.29F WCI   3
ORANGE CITY *  SUNNY     19   0  42 NW20G31   30.25F WCI   4
SHELDON *      PTSUNNY   14   0  52 NW23G31   30.24S WCI  -5
STORM LAKE *   MOSUNNY   21   3  45 NW31G37   30.22F WCI   3
$$

IAZ055>058-069>071-079>083-090>094-042000-
   SOUTHWEST IOWA

CITY           SKY/WX    TMP DP  RH WIND       PRES   REMARKS
ATLANTIC *     MOSUNNY   27   3  36 W16       30.26S WCI  14
AUDUBON *      MOSUNNY   28   3  34 NW12G21   30.24F WCI  18
CLARINDA *     MOSUNNY   28   9  43 N15       30.31F WCI  17
COUNCIL BLFS * MOSUNNY   28   3  34 NW20G31   30.26R WCI  15
CRESTON *      MOSUNNY   25   3  39 NW17      30.27R WCI  11
HARLAN  *      MOSUNNY   28   1  31 NW25G32   30.29R WCI  14
RED OAK *      MOSUNNY   28   5  37 NW12G22   30.29R WCI  18
SHENANDOAH *   PTSUNNY   28   7  40 NW14      30.30F WCI  17
$$

IAZ047>049-059>061-072>074-084-042000-
   CENTRAL IOWA

CITY           SKY/WX    TMP DP  RH WIND       PRES   REMARKS
ANKENY *       SUNNY     23   5  46 W8G17     30.27F WCI  14
CHARITON *     SUNNY     25   1  36 NW14G21   30.27S WCI  13
GRINNELL*      SUNNY     19   7  58 W9G17     30.26F WCI   9
KNOXVILLE *    SUNNY     23   1  39 NW14      30.26F WCI  11
PELLA *        SUNNY     21   9  58 NW13G18   30.29S WCI   9
PERRY *          N/A     27  10  50 NW15G21   30.24F WCI  15
$$

IAZ004>006-015-016-023>025-035-036-042000-
   NORTH CENTRAL IOWA

CITY           SKY/WX    TMP DP  RH WIND       PRES   REMARKS
ALGONA *       LGT SNOW  16 N/A N/A N9        30.22F WCI   4
CLARION *      MOSUNNY   19  10  68 W12       30.22F WCI   7
FOREST CITY *  SUNNY     14   0  52 NW6       30.22F WCI   5
IOWA FALLS *     N/A     19   7  58 W9        30.24F WCI   9
$$

IAZ007>011-017>019-026>030-037>042-050>054-066-042000-
   NORTHEAST IOWA

CITY           SKY/WX    TMP DP  RH WIND       PRES   REMARKS
CHARLES CITY * SUNNY     10  -2  56 W13G18    30.24F WCI  -5
DECORAH *      SUNNY     10  -8  44 NW14G22   30.20F WCI  -5
MONTICELLO *   SUNNY     12   0  57 NW16      30.24F WCI  -4
OELWEIN *      SUNNY     12  -2  52 NW13      30.25F WCI  -3
$$

IAZ064-065-067-068-078-042000-
   EAST CENTRAL IOWA

CITY           SKY/WX    TMP DP  RH WIND       PRES   REMARKS
MT. PLEASANT * SUNNY     18   1  49 NW13      30.28S WCI   4
MUSCATINE *    SUNNY     19   3  49 NW14      30.29S WCI   6
$$

IAZ062-063-075>077-085>089-095>099-042000-
   SOUTHEAST IOWA

CITY           SKY/WX    TMP DP  RH WIND       PRES   REMARKS
FAIRFIELD *    SUNNY     19   1  45 N12G20    30.28F WCI   7
FORT MADISON * SUNNY     19   5  53 NW14G20   30.27F WCI   6
KEOKUK *       SUNNY     19   1  45 N12G17    30.27F WCI   7
OSKALOOSA *      N/A     21   3  45 N12       30.28S WCI   9
CENTERVILLE *  SUNNY     25   3  39 N14       30.28F WCI  13
WASHINGTON *   SUNNY     19   7  58 NW15G21   30.29R WCI   5
$$

ABBREVIATIONS USED IN REMARKS
   TC - TEMPERATURES IN CELSIUS
  WCI - WIND CHILL INDEX
   HX - HEAT INDEX
  VSB - VISIBILITY
$$




USA.gov is the U.S. government's official web portal to all federal, state and local government web resources and services.